Weather History for Ankara, Turkey

Change the Weather History Date:

Sunday, February 17, 2013

  Actual Average Record
Temperature  
Mean Temperature 32 °F -  
Max Temperature 37 °F 46 °F 64 °F (2006)
Min Temperature 24 °F 24 °F -4 °F (2006)
Degree Days  
Heating Degree Days 34    
Moisture  
Dew Point 23 °F    
Average Humidity 72    
Maximum Humidity 93    
Minimum Humidity 46    
Precipitation  
Precipitation 0.00 in - - ()
Sea Level Pressure  
Sea Level Pressure 30.01 in    
Wind  
Wind Speed 3 mph ()    
Max Wind Speed 7 mph    
Max Gust Speed -    
Visibility 6.4 miles    
Events      
Averages and records for this station are not official NWS values.
T = Trace of Precipitation, MM = Missing Value Source: Averaged Metar Reports

Daily Weather History Graph

Daily Weather History Graph

Search for Another Location

Airport:

Trip Planner

Search our weather history database for the weather conditions in past years. The results will help you decide how hot, cold, wet, or windy it might be!

Date:

Astronomy

Feb. 17, 2013 Rise Set
Actual Time 6:38 AM EET 5:26 PM EET
Civil Twilight 6:10 AM EET 5:53 PM EET
Nautical Twilight 5:39 AM EET 6:25 PM EET
Astronomical Twilight 5:07 AM EET 6:56 PM EET
Moon 10:17 AM EET (2/17) 12:03 AM EET (2/17)
Length of Visible Light 11h 42m
Length of Day
10h 47m
Waxing Crescent, 46% of the Moon is Illuminated
Feb 17
Waxing Crescent
Feb 17
First Quarter
Feb 25
Full
Mar 4
Last Quarter
Mar 11
New

Hourly Weather History & Observations

Time (EET) Temp. Windchill Dew Point Humidity Pressure Visibility Wind Dir Wind Speed Gust Speed Precip Events Conditions
12:20 AM 30.2 °F - 24.8 °F 80% 30.01 in 6.2 mi North 2.3 mph - N/A   Scattered Clouds
12:50 AM 30.2 °F - 24.8 °F 80% 30.01 in 6.2 mi West 2.3 mph - N/A   Scattered Clouds
1:20 AM 30.2 °F 25.4 °F 24.8 °F 80% 30.01 in 6.2 mi WNW 4.6 mph - N/A   Scattered Clouds
1:50 AM 28.4 °F - 24.8 °F 86% 30.01 in 6.2 mi Variable 1.2 mph - N/A   Scattered Clouds
2:00 AM 29 °F - 24 °F 73% 30.12 in 6 mi SSW 1.2 mph - -   Partly Cloudy
2:20 AM 28.4 °F - 23.0 °F 80% 30.01 in 6.2 mi Calm Calm - N/A   Scattered Clouds
2:50 AM 28.4 °F 23.3 °F 23.0 °F 80% 30.01 in 6.2 mi WSW 4.6 mph - N/A   Scattered Clouds
3:20 AM 28.4 °F 23.3 °F 23.0 °F 80% 30.01 in 6.2 mi West 4.6 mph - N/A   Scattered Clouds
3:50 AM 28.4 °F - 24.8 °F 86% 30.01 in 6.2 mi West 2.3 mph - N/A   Scattered Clouds
4:20 AM 30.2 °F - 24.8 °F 80% 30.01 in 6.2 mi Variable 2.3 mph - N/A   Scattered Clouds
4:50 AM 30.2 °F - 24.8 °F 80% 30.01 in 6.2 mi Variable 2.3 mph - N/A   Scattered Clouds
5:20 AM 28.4 °F 24.6 °F 23.0 °F 80% 30.01 in 6.2 mi WSW 3.5 mph - N/A   Scattered Clouds
5:50 AM 28.4 °F - 24.8 °F 86% 30.01 in 6.2 mi Variable 2.3 mph - N/A   Scattered Clouds
6:20 AM 30.2 °F - 23.0 °F 75% 30.01 in 6.2 mi Variable 2.3 mph - N/A   Scattered Clouds
6:50 AM 30.2 °F 26.7 °F 23.0 °F 75% 30.01 in 6.2 mi WSW 3.5 mph - N/A   Scattered Clouds
7:20 AM 28.4 °F 23.3 °F 23.0 °F 80% 30.01 in 6.2 mi West 4.6 mph - N/A   Mostly Cloudy
7:50 AM 28.4 °F 22.2 °F 21.2 °F 74% 30.01 in 6.2 mi West 5.8 mph - N/A   Scattered Clouds
8:00 AM 29 °F - 22 °F 65% 30.15 in 12 mi West 5.8 mph - -   Partly Cloudy
8:20 AM 30.2 °F 25.4 °F 23.0 °F 75% 30.04 in 6.2 mi West 4.6 mph - N/A   Scattered Clouds
8:50 AM 30.2 °F 25.4 °F 21.2 °F 69% 30.01 in 6.2 mi West 4.6 mph - N/A   Scattered Clouds
9:20 AM 30.2 °F 26.7 °F 23.0 °F 75% 30.01 in 6.2 mi West 3.5 mph - N/A   Scattered Clouds
9:50 AM 32.0 °F 27.5 °F 21.2 °F 64% 30.01 in 6.2 mi WSW 4.6 mph - N/A   Scattered Clouds
10:20 AM 32.0 °F 28.7 °F 21.2 °F 64% 30.01 in 6.2 mi WSW 3.5 mph - N/A   Scattered Clouds
10:50 AM 32.0 °F - 19.4 °F 60% 30.04 in 6.2 mi Variable 2.3 mph - N/A   Scattered Clouds
11:20 AM 32.0 °F 28.7 °F 21.2 °F 64% 30.01 in 6.2 mi Variable 3.5 mph - N/A   Scattered Clouds
11:50 AM 33.8 °F - 21.2 °F 60% 30.01 in 6.2 mi Variable 2.3 mph - N/A   Scattered Clouds
12:20 PM 33.8 °F 30.8 °F 21.2 °F 60% 30.01 in 6.2 mi WNW 3.5 mph - N/A   Scattered Clouds
12:50 PM 33.8 °F 30.8 °F 23.0 °F 65% 30.01 in 6.2 mi West 3.5 mph - N/A   Scattered Clouds
1:20 PM 33.8 °F - 23.0 °F 65% 30.01 in 6.2 mi SW 2.3 mph - N/A   Scattered Clouds
1:50 PM 35.6 °F 32.8 °F 23.0 °F 60% 29.98 in 6.2 mi Variable 3.5 mph - N/A   Scattered Clouds
2:00 PM 35 °F - 22 °F 46% 30.11 in 6 mi West 3.5 mph - -   Partly Cloudy
2:20 PM 35.6 °F 29.9 °F 21.2 °F 56% 29.98 in 6.2 mi SW 6.9 mph - N/A   Scattered Clouds
2:50 PM 35.6 °F 31.7 °F 21.2 °F 56% 29.98 in 6.2 mi SW 4.6 mph - N/A   Scattered Clouds
3:20 PM 35.6 °F 32.8 °F 21.2 °F 56% 29.98 in 6.2 mi NE 3.5 mph - N/A   Scattered Clouds
3:50 PM 37.4 °F 32.8 °F 23.0 °F 56% 29.98 in 6.2 mi WNW 5.8 mph - N/A   Scattered Clouds
4:20 PM 37.4 °F 33.8 °F 21.2 °F 52% 29.98 in 6.2 mi SW 4.6 mph - N/A   Scattered Clouds
4:50 PM 35.6 °F 30.7 °F 21.2 °F 56% 29.98 in 6.2 mi SW 5.8 mph - N/A   Scattered Clouds
5:20 PM 33.8 °F 29.6 °F 21.2 °F 60% 29.98 in 6.2 mi SSE 4.6 mph - N/A   Scattered Clouds
5:50 PM 33.8 °F 30.8 °F 21.2 °F 60% 29.98 in 6.2 mi SSE 3.5 mph - N/A   Scattered Clouds
6:20 PM 33.8 °F 28.6 °F 21.2 °F 60% 29.98 in 6.2 mi SSE 5.8 mph - N/A   Scattered Clouds
6:50 PM 32.0 °F 27.5 °F 23.0 °F 69% 29.98 in 6.2 mi SE 4.6 mph - N/A   Scattered Clouds
7:20 PM 32.0 °F 28.7 °F 23.0 °F 69% 29.98 in 6.2 mi ESE 3.5 mph - N/A   Scattered Clouds
7:50 PM 30.2 °F 25.4 °F 24.8 °F 80% 29.98 in 6.2 mi NNE 4.6 mph - N/A   Scattered Clouds
8:00 PM 30 °F - 24 °F 70% 30.12 in 12 mi NNE 4.6 mph - -   Scattered Clouds
8:20 PM 28.4 °F 24.6 °F 24.8 °F 86% 29.98 in 6.2 mi NNE 3.5 mph - N/A   Scattered Clouds
8:50 PM 28.4 °F 23.3 °F 23.0 °F 80% 29.98 in 6.2 mi NE 4.6 mph - N/A   Partly Cloudy
9:20 PM 28.4 °F 24.6 °F 23.0 °F 80% 29.98 in 6.2 mi NNE 3.5 mph - N/A   Partly Cloudy
9:50 PM 28.4 °F 23.3 °F 24.8 °F 86% 29.98 in 6.2 mi North 4.6 mph - N/A   Partly Cloudy
10:20 PM 26.6 °F - 23.0 °F 86% 29.98 in 6.2 mi Variable 2.3 mph - N/A   Partly Cloudy
10:50 PM 26.6 °F - 23.0 °F 86% 29.98 in 6.2 mi Variable 1.2 mph - N/A   Partly Cloudy
11:20 PM 26.6 °F - 23.0 °F 86% 29.98 in 6.2 mi SE 2.3 mph - N/A   Partly Cloudy
11:50 PM 24.8 °F - 23.0 °F 93% 29.98 in 6.2 mi Variable 1.2 mph - N/A   Partly Cloudy